{"data":{"norad_id":81674,"epoch":"2026-09-18T08:04:09.575616Z","epoch_age_seconds":201429,"freshness":"STALE","line1":"1 81674U          26261.33622194  .00000313  00000+0  22046-3 0  9996","line2":"2 81674  66.8240  19.8548 0023104   7.8910  23.5147 14.10482771653140","mean_motion":14.10482771,"eccentricity":0.0023104,"inclination_deg":66.824,"raan_deg":19.8548,"arg_perigee_deg":7.891,"mean_anomaly_deg":23.5147,"bstar":0.00022046,"rev_number":65314,"period_min":102.09270397391,"perigee_km":841.0024221036,"apogee_km":874.43787080594,"semimajor_km":7235.8571464548,"source":"CELESTRAK","updated_at":"2026-09-20T09:00:32.393657Z"}}